Fryeburg, ME

10:21 AM EDT on April 28, 2017 (GMT -0400)
Eastern Slopes Regional

Weather History for KIZG - March, 2014

Change the Weather History Date:

Thursday, March 27, 2014

  Actual Average Record
Temperature  
Mean Temperature 22 °F -  
Max Temperature 37 °F 43 °F 73 °F (1998)
Min Temperature 8 °F 23 °F 8 °F (2014)
Degree Days  
Heating Degree Days 42    
Moisture  
Dew Point -2 °F    
Average Humidity 30    
Maximum Humidity 48    
Minimum Humidity 20    
Precipitation  
Precipitation 0.00 in - - ()
Sea Level Pressure  
Sea Level Pressure 30.17 in    
Wind  
Wind Speed 8 mph (SW)    
Max Wind Speed 13 mph    
Max Gust Speed 26 mph    
Visibility 10 miles    
Events      
Averages and records for this station are not official NWS values.
T = Trace of Precipitation, MM = Missing Value Source: NWS Daily Summary

Daily Weather History Graph

Daily Weather History Graph

Search for Another Location

Airport or City:

Trip Planner

Search our weather history database for the weather conditions in past years. The results will help you decide how hot, cold, wet, or windy it might be!

Date:

Astronomy

Mar. 27, 2014 Rise Set
Actual Time 6:34 AM EDT 7:04 PM EDT
Civil Twilight 6:05 AM EDT 7:33 PM EDT
Nautical Twilight 5:31 AM EDT 8:07 PM EDT
Astronomical Twilight 4:55 AM EDT 8:43 PM EDT
Moon 4:30 AM EDT (3/27) 3:42 PM EDT (3/27)
Length of Visible Light 13h 28m
Length of Day
12h 30m
Waning Crescent, 13% of the Moon is Illuminated
Mar 27
Waning Crescent
Mar 30
New
Apr 7
First Quarter
Apr 15
Full
Apr 22
Last Quarter

Hourly Weather History & Observations

Time (EDT) Temp. Windchill Dew Point Humidity Pressure Visibility Wind Dir Wind Speed Gust Speed Precip Events Conditions
12:54 AM 19.0 °F 6.1 °F -2.0 °F 40% 29.95 in 10.0 mi WNW 12.7 mph 25.3 mph N/A   Clear
1:54 AM 18.0 °F 7.7 °F -5.1 °F 36% 29.98 in 10.0 mi West 8.1 mph 26.5 mph N/A   Clear
2:54 AM 17.1 °F 3.6 °F -6.0 °F 36% 30.00 in 10.0 mi West 12.7 mph 23.0 mph N/A   Clear
3:54 AM 16.0 °F 5.3 °F -8.0 °F 34% 30.04 in 10.0 mi West 8.1 mph 16.1 mph N/A   Clear
4:54 AM 16.0 °F 2.3 °F -8.0 °F 34% 30.08 in 10.0 mi West 12.7 mph 19.6 mph N/A   Clear
5:54 AM 14.0 °F 8.2 °F -8.0 °F 37% 30.13 in 10.0 mi Variable 3.5 mph - N/A   Clear
6:54 AM 8.1 °F 1.4 °F -8.0 °F 48% 30.19 in 10.0 mi SSW 3.5 mph - N/A   Clear
7:54 AM 16.0 °F - -6.0 °F 38% 30.21 in 10.0 mi Calm Calm - N/A   Clear
8:54 AM 19.9 °F 14.9 °F -6.0 °F 32% 30.23 in 10.0 mi East 3.5 mph - N/A   Clear
9:54 AM 24.1 °F 19.7 °F -6.0 °F 27% 30.24 in 10.0 mi ENE 3.5 mph - N/A   Clear
10:54 AM 27.0 °F - -2.9 °F 27% 30.24 in 10.0 mi Calm Calm - N/A   Clear
11:54 AM 30.0 °F 22.4 °F -2.0 °F 25% 30.23 in 10.0 mi WNW 8.1 mph 17.3 mph 0.00 in   Clear
12:54 PM 33.1 °F 28.7 °F -2.9 °F 21% 30.22 in 10.0 mi Variable 4.6 mph - N/A   Clear
1:54 PM 36.0 °F 29.0 °F -2.0 °F 20% 30.20 in 10.0 mi WSW 9.2 mph - N/A   Clear
2:54 PM 36.0 °F 32.1 °F -0.9 °F 21% 30.19 in 10.0 mi South 4.6 mph - N/A   Clear
3:54 PM 36.0 °F 28.5 °F 1.9 °F 24% 30.19 in 10.0 mi South 10.4 mph - N/A   Mostly Cloudy
4:54 PM 37.0 °F 31.0 °F 1.0 °F 22% 30.19 in 10.0 mi SSW 8.1 mph - N/A   Clear
5:54 PM 36.0 °F 28.5 °F 1.9 °F 24% 30.21 in 10.0 mi SW 10.4 mph - N/A   Scattered Clouds
6:54 PM 35.1 °F 29.3 °F 3.0 °F 26% 30.23 in 10.0 mi SW 6.9 mph - N/A   Partly Cloudy
7:54 PM 34.0 °F 28.8 °F 3.0 °F 27% 30.21 in 10.0 mi SSW 5.8 mph - N/A   Scattered Clouds
8:54 PM 33.1 °F 27.7 °F 3.0 °F 28% 30.21 in 10.0 mi SSW 5.8 mph - N/A   Overcast
9:54 PM 33.1 °F 28.7 °F 5.0 °F 31% 30.21 in 10.0 mi SSW 4.6 mph - N/A   Overcast
10:54 PM 34.0 °F 29.8 °F 7.0 °F 32% 30.20 in 10.0 mi Variable 4.6 mph - N/A   Overcast
11:54 PM 30.9 °F 27.5 °F 10.0 °F 42% 30.18 in 10.0 mi South 3.5 mph - N/A   Overcast